| time (UTC) | temp C | wind direction | speed KPH | gust KPH | rain 1hr cm | rain 24hr cm | rain mn cm | humidity % | barometer mb |
| 20260506192758 | 20 | 217 | 4.8 | 8.0 | 0.00 | 0.10 | 0.00 | 71 | 1008.5 |
| 20260506192257 | 20 | 169 | 4.8 | 4.8 | 0.00 | 0.10 | 0.00 | 71 | 1008.4 |
| 20260506191758 | 20 | 260 | 6.4 | 3.2 | 0.00 | 0.10 | 0.00 | 71 | 1008.4 |
| 20260506191259 | 20 | 221 | 6.4 | 4.8 | 0.00 | 0.10 | 0.00 | 72 | 1008.5 |
| 20260506190758 | 19 | 53 | 4.8 | 3.2 | 0.00 | 0.10 | 0.00 | 72 | 1008.7 |
| 20260506190259 | 19 | 208 | 3.2 | 3.2 | 0.00 | 0.10 | 0.00 | 72 | 1008.6 |
| 20260506185800 | 19 | 187 | 8.0 | 3.2 | 0.00 | 0.10 | 0.00 | 71 | 1008.8 |
| 20260506185259 | 20 | 210 | 4.8 | 6.4 | 0.00 | 0.10 | 0.00 | 69 | 1008.9 |
| 20260506184800 | 20 | 167 | 6.4 | 4.8 | 0.00 | 0.10 | 0.00 | 68 | 1009.0 |
| 20260506184301 | 20 | 152 | 8.0 | 11.3 | 0.00 | 0.10 | 0.00 | 67 | 1008.9 |
| 20260506183800 | 20 | 143 | 3.2 | 6.4 | 0.00 | 0.10 | 0.00 | 67 | 1008.8 |
| 20260506183301 | 20 | 173 | 4.8 | 3.2 | 0.00 | 0.10 | 0.00 | 66 | 1008.8 |
| 20260506182803 | 20 | 181 | 3.2 | 6.4 | 0.00 | 0.10 | 0.00 | 66 | 1008.9 |
| 20260506182301 | 20 | 195 | 4.8 | 4.8 | 0.00 | 0.10 | 0.00 | 66 | 1008.9 |
| 20260506181802 | 20 | 155 | 8.0 | 6.4 | 0.00 | 0.10 | 0.00 | 66 | 1008.9 |
| 20260506181304 | 20 | 300 | 6.4 | 1.6 | 0.00 | 0.10 | 0.00 | 66 | 1008.9 |
| 20260506180802 | 21 | 193 | 4.8 | 4.8 | 0.00 | 0.10 | 0.00 | 65 | 1009.0 |
| 20260506180304 | 21 | 180 | 4.8 | 8.0 | 0.00 | 0.10 | 0.00 | 65 | 1009.0 |
| 20260506175805 | 21 | 177 | 4.8 | 4.8 | 0.00 | 0.10 | 0.00 | 65 | 1009.1 |
| 20260506175306 | 21 | 155 | 6.4 | 6.4 | 0.00 | 0.10 | 0.00 | 65 | 1009.2 |
| 20260506174805 | 21 | 179 | 4.8 | 9.7 | 0.00 | 0.10 | 0.00 | 65 | 1009.4 |
| 20260506174303 | 21 | 181 | 6.4 | 9.7 | 0.00 | 0.10 | 0.00 | 66 | 1009.4 |
| 20260506173802 | 21 | 172 | 8.0 | 6.4 | 0.00 | 0.10 | 0.00 | 66 | 1009.4 |
| 20260506173303 | 21 | 165 | 4.8 | 4.8 | 0.00 | 0.10 | 0.00 | 67 | 1009.3 |
| 20260506172804 | 20 | 191 | 6.4 | 6.4 | 0.00 | 0.10 | 0.00 | 68 | 1009.5 |
| 20260506172306 | 20 | 198 | 4.8 | 6.4 | 0.00 | 0.10 | 0.00 | 69 | 1009.4 |
| 20260506171804 | 20 | 152 | 4.8 | 3.2 | 0.00 | 0.10 | 0.00 | 70 | 1009.5 |
| 20260506171306 | 20 | 166 | 3.2 | 4.8 | 0.00 | 0.10 | 0.00 | 71 | 1009.5 |
| 20260506170805 | 20 | 203 | 6.4 | 3.2 | 0.00 | 0.10 | 0.00 | 70 | 1009.7 |
| 20260506170306 | 20 | 65 | 3.2 | 1.6 | 0.00 | 0.10 | 0.00 | 69 | 1009.8 |
| 20260506165807 | 20 | 156 | 4.8 | 8.0 | 0.00 | 0.10 | 0.00 | 69 | 1009.9 |
| 20260506165307 | 20 | 158 | 3.2 | 3.2 | 0.00 | 0.10 | 0.00 | 69 | 1009.9 |
| 20260506164807 | 20 | 165 | 4.8 | 8.0 | 0.00 | 0.10 | 0.00 | 69 | 1010.2 |
| 20260506164308 | 20 | 174 | 4.8 | 1.6 | 0.00 | 0.10 | 0.00 | 69 | 1010.4 |
| 20260506163807 | 20 | 162 | 4.8 | 4.8 | 0.00 | 0.10 | 0.00 | 69 | 1010.6 |
| 20260506163308 | 20 | 170 | 4.8 | 11.3 | 0.00 | 0.10 | 0.00 | 69 | 1010.7 |
| 20260506162810 | 20 | 165 | 4.8 | 6.4 | 0.00 | 0.10 | 0.00 | 69 | 1010.8 |
| 20260506162308 | 20 | 181 | 3.2 | 4.8 | 0.00 | 0.10 | 0.00 | 69 | 1010.8 |
| 20260506161809 | 20 | 143 | 4.8 | 4.8 | 0.00 | 0.10 | 0.00 | 69 | 1010.8 |
| 20260506161311 | 20 | 170 | 4.8 | 4.8 | 0.00 | 0.10 | 0.00 | 68 | 1010.8 |
| 20260506160809 | 20 | 181 | 4.8 | 3.2 | 0.00 | 0.10 | 0.00 | 68 | 1010.9 |
| 20260506160310 | 20 | 59 | 4.8 | 6.4 | 0.00 | 0.10 | 0.00 | 68 | 1010.9 |
| 20260506155812 | 20 | 201 | 4.8 | 1.6 | 0.00 | 0.10 | 0.00 | 68 | 1010.8 |
| 20260506155310 | 20 | 186 | 3.2 | 6.4 | 0.00 | 0.10 | 0.00 | 68 | 1010.9 |
| 20260506154812 | 20 | 186 | 4.8 | 1.6 | 0.00 | 0.10 | 0.00 | 67 | 1010.8 |
| 20260506154313 | 20 | 125 | 3.2 | 4.8 | 0.00 | 0.10 | 0.00 | 67 | 1010.9 |
| 20260506153811 | 20 | 167 | 6.4 | 4.8 | 0.00 | 0.10 | 0.00 | 67 | 1010.9 |
| 20260506153313 | 20 | 181 | 4.8 | 4.8 | 0.00 | 0.10 | 0.00 | 67 | 1010.9 |
| 20260506152814 | 20 | 191 | 6.4 | 4.8 | 0.00 | 0.10 | 0.00 | 67 | 1010.9 |
| 20260506152313 | 20 | 170 | 4.8 | 3.2 | 0.00 | 0.10 | 0.00 | 67 | 1011.0 |
| 20260506151814 | 20 | 194 | 4.8 | 3.2 | 0.00 | 0.10 | 0.00 | 66 | 1011.0 |
| 20260506151315 | 20 | 162 | 3.2 | 6.4 | 0.00 | 0.10 | 0.00 | 66 | 1011.0 |
| 20260506150814 | 20 | 159 | 6.4 | 6.4 | 0.00 | 0.10 | 0.00 | 65 | 1011.1 |
| 20260506150315 | 20 | 160 | 3.2 | 1.6 | 0.00 | 0.10 | 0.00 | 65 | 1011.1 |
| 20260506145816 | 20 | 183 | 3.2 | 6.4 | 0.00 | 0.10 | 0.00 | 64 | 1011.1 |
| 20260506145315 | 20 | 188 | 4.8 | 4.8 | 0.00 | 0.10 | 0.00 | 64 | 1011.1 |
| 20260506144816 | 21 | 166 | 4.8 | 4.8 | 0.00 | 0.10 | 0.00 | 64 | 1011.2 |
| 20260506144317 | 21 | 169 | 8.0 | 6.4 | 0.00 | 0.10 | 0.00 | 64 | 1011.0 |
| 20260506143816 | 21 | 124 | 4.8 | 6.4 | 0.00 | 0.10 | 0.00 | 64 | 1011.1 |
| 20260506143317 | 21 | 180 | 4.8 | 6.4 | 0.00 | 0.10 | 0.00 | 64 | 1011.2 |
| 20260506142818 | 21 | 207 | 4.8 | 8.0 | 0.00 | 0.10 | 0.00 | 64 | 1011.2 |
| 20260506142317 | 21 | 181 | 4.8 | 6.4 | 0.00 | 0.10 | 0.00 | 64 | 1011.1 |
| 20260506141818 | 21 | 179 | 3.2 | 3.2 | 0.00 | 0.10 | 0.00 | 63 | 1011.2 |
| 20260506141320 | 21 | 190 | 4.8 | 4.8 | 0.00 | 0.10 | 0.00 | 63 | 1011.1 |
| 20260506140818 | 21 | 288 | 4.8 | 3.2 | 0.00 | 0.10 | 0.00 | 62 | 1011.0 |
| 20260506140319 | 21 | 173 | 6.4 | 4.8 | 0.00 | 0.10 | 0.00 | 61 | 1011.0 |
| 20260506135821 | 21 | 190 | 6.4 | 4.8 | 0.00 | 0.10 | 0.00 | 60 | 1011.2 |
| 20260506135319 | 21 | 143 | 6.4 | 4.8 | 0.00 | 0.10 | 0.00 | 60 | 1011.0 |
| 20260506134820 | 21 | 155 | 4.8 | 6.4 | 0.00 | 0.10 | 0.00 | 62 | 1011.1 |
| 20260506134322 | 21 | 166 | 4.8 | 3.2 | 0.00 | 0.10 | 0.00 | 62 | 1011.2 |
| 20260506133820 | 21 | 148 | 4.8 | 3.2 | 0.00 | 0.10 | 0.00 | 62 | 1011.3 |
| 20260506133322 | 21 | 197 | 4.8 | 3.2 | 0.00 | 0.10 | 0.00 | 62 | 1011.4 |
| 20260506132823 | 21 | 166 | 3.2 | 8.0 | 0.00 | 0.10 | 0.00 | 64 | 1011.4 |
| 20260506132321 | 20 | 160 | 4.8 | 3.2 | 0.00 | 0.10 | 0.00 | 65 | 1011.6 |
| 20260506131822 | 20 | 156 | 9.7 | 4.8 | 0.00 | 0.10 | 0.00 | 65 | 1011.7 |
| 20260506131324 | 20 | 153 | 4.8 | 1.6 | 0.00 | 0.10 | 0.00 | 66 | 1011.6 |
| 20260506130822 | 20 | 212 | 8.0 | 3.2 | 0.00 | 0.10 | 0.00 | 67 | 1011.6 |
| 20260506130323 | 20 | 167 | 4.8 | 8.0 | 0.00 | 0.10 | 0.00 | 68 | 1011.5 |
| 20260506125825 | 20 | 215 | 4.8 | 4.8 | 0.00 | 0.10 | 0.00 | 69 | 1011.5 |
| 20260506125323 | 19 | 153 | 3.2 | 3.2 | 0.00 | 0.10 | 0.00 | 69 | 1011.6 |
| 20260506124825 | 18 | 165 | 9.7 | 12.9 | 0.00 | 0.10 | 0.00 | 70 | 1011.5 |
| 20260506124326 | 18 | 186 | 4.8 | 4.8 | 0.00 | 0.10 | 0.00 | 70 | 1011.5 |
| 20260506123825 | 18 | 169 | 4.8 | 4.8 | 0.00 | 0.10 | 0.00 | 70 | 1011.3 |
| 20260506123326 | 18 | 145 | 3.2 | 6.4 | 0.00 | 0.10 | 0.00 | 71 | 1011.5 |
| 20260506122827 | 18 | 135 | 3.2 | 1.6 | 0.00 | 0.10 | 0.00 | 71 | 1011.5 |
| 20260506122326 | 18 | 153 | 6.4 | 11.3 | 0.00 | 0.10 | 0.00 | 72 | 1011.6 |
| 20260506121827 | 18 | 204 | 4.8 | 6.4 | 0.00 | 0.10 | 0.00 | 73 | 1011.5 |
| 20260506121328 | 18 | 125 | 4.8 | 3.2 | 0.00 | 0.10 | 0.00 | 74 | 1011.6 |
| 20260506120827 | 18 | 184 | 6.4 | 3.2 | 0.00 | 0.10 | 0.00 | 74 | 1011.6 |
| 20260506120328 | 18 | 236 | 4.8 | 3.2 | 0.00 | 0.10 | 0.00 | 74 | 1011.5 |
| 20260506115830 | 17 | 155 | 4.8 | 4.8 | 0.00 | 0.10 | 0.00 | 74 | 1011.5 |
| 20260506115328 | 17 | 188 | 6.4 | 8.0 | 0.00 | 0.10 | 0.00 | 76 | 1011.6 |
| 20260506114830 | 17 | 193 | 3.2 | 6.4 | 0.00 | 0.10 | 0.00 | 76 | 1011.7 |
| 20260506114331 | 17 | 229 | 4.8 | 4.8 | 0.00 | 0.10 | 0.00 | 78 | 1011.7 |
| 20260506113829 | 17 | 239 | 4.8 | 3.2 | 0.00 | 0.10 | 0.00 | 79 | 1011.7 |
| 20260506113331 | 17 | 204 | 4.8 | 6.4 | 0.00 | 0.10 | 0.00 | 79 | 1011.8 |
| 20260506112832 | 16 | 197 | 4.8 | 4.8 | 0.00 | 0.10 | 0.00 | 79 | 1011.8 |
| 20260506112331 | 16 | 339 | 6.4 | 8.0 | 0.00 | 0.10 | 0.00 | 80 | 1011.8 |
| 20260506111832 | 16 | 174 | 3.2 | 8.0 | 0.00 | 0.10 | 0.00 | 80 | 1011.8 |
| 20260506111334 | 16 | 176 | 4.8 | 8.0 | 0.00 | 0.10 | 0.00 | 81 | 1011.9 |
| 20260506110832 | 16 | 222 | 1.6 | 0.0 | 0.00 | 0.10 | 0.00 | 82 | 1011.8 |
| 20260506110334 | 16 | 146 | 3.2 | 4.8 | 0.00 | 0.10 | 0.00 | 82 | 1011.8 |
| 20260506105835 | 16 | 166 | 1.6 | 4.8 | 0.00 | 0.10 | 0.00 | 82 | 1011.7 |
| 20260506105333 | 16 | 162 | 4.8 | 8.0 | 0.00 | 0.10 | 0.00 | 83 | 1011.6 |
| 20260506104835 | 16 | 217 | 3.2 | 6.4 | 0.00 | 0.10 | 0.00 | 83 | 1011.6 |
| 20260506104336 | 16 | 229 | 3.2 | 3.2 | 0.00 | 0.10 | 0.00 | 83 | 1011.6 |
| 20260506103834 | 15 | 166 | 3.2 | 11.3 | 0.00 | 0.10 | 0.00 | 83 | 1011.7 |
| 20260506103336 | 15 | 184 | 1.6 | 4.8 | 0.00 | 0.10 | 0.00 | 83 | 1011.7 |
| 20260506102837 | 15 | 167 | 4.8 | 3.2 | 0.00 | 0.10 | 0.00 | 83 | 1011.6 |
| 20260506102336 | 15 | 160 | 1.6 | 0.0 | 0.00 | 0.10 | 0.00 | 83 | 1011.6 |
| 20260506101837 | 15 | 125 | 1.6 | 1.6 | 0.00 | 0.10 | 0.00 | 83 | 1011.5 |
| 20260506101338 | 15 | 160 | 1.6 | 3.2 | 0.00 | 0.10 | 0.00 | 83 | 1011.4 |
| 20260506100837 | 15 | 159 | 1.6 | 4.8 | 0.00 | 0.10 | 0.00 | 83 | 1011.4 |
| 20260506100338 | 15 | 152 | 1.6 | 8.0 | 0.00 | 0.10 | 0.00 | 83 | 1011.4 |
| 20260506095840 | 15 | 188 | 1.6 | 0.0 | 0.00 | 0.10 | 0.00 | 83 | 1011.4 |
| 20260506095338 | 15 | 129 | 4.8 | 4.8 | 0.00 | 0.10 | 0.00 | 83 | 1011.4 |
| 20260506094840 | 15 | 183 | 0.0 | 4.8 | 0.00 | 0.10 | 0.00 | 83 | 1011.3 |
| 20260506094341 | 15 | 232 | 3.2 | 0.0 | 0.00 | 0.10 | 0.00 | 84 | 1011.4 |
| 20260506093840 | 15 | 214 | 0.0 | 0.0 | 0.00 | 0.10 | 0.00 | 84 | 1011.4 |
| 20260506093342 | 15 | 214 | 0.0 | 0.0 | 0.00 | 0.10 | 0.00 | 84 | 1011.4 |
| 20260506092843 | 15 | 148 | 3.2 | 0.0 | 0.00 | 0.10 | 0.00 | 84 | 1011.4 |
| 20260506092342 | 15 | 152 | 3.2 | 1.6 | 0.00 | 0.10 | 0.00 | 84 | 1011.4 |
| 20260506091844 | 15 | 152 | 0.0 | 0.0 | 0.00 | 0.10 | 0.00 | 84 | 1011.5 |
| 20260506091344 | 15 | 177 | 4.8 | 4.8 | 0.00 | 0.10 | 0.00 | 84 | 1011.6 |
| 20260506090843 | 15 | 169 | 1.6 | 0.0 | 0.00 | 0.10 | 0.00 | 84 | 1011.6 |
| 20260506090345 | 15 | 176 | 0.0 | 8.0 | 0.00 | 0.10 | 0.00 | 83 | 1011.7 |
| 20260506085846 | 15 | 148 | 0.0 | 0.0 | 0.00 | 0.10 | 0.00 | 84 | 1011.8 |
| 20260506085345 | 15 | 180 | 3.2 | 6.4 | 0.00 | 0.10 | 0.00 | 83 | 1011.7 |
| 20260506084846 | 15 | 114 | 1.6 | 6.4 | 0.00 | 0.10 | 0.00 | 83 | 1011.8 |
| 20260506084347 | 15 | 176 | 4.8 | 4.8 | 0.00 | 0.10 | 0.00 | 83 | 1011.8 |
| 20260506083846 | 15 | 156 | 0.0 | 3.2 | 0.00 | 0.10 | 0.00 | 83 | 1011.8 |
| 20260506083347 | 16 | 180 | 0.0 | 0.0 | 0.00 | 0.10 | 0.00 | 83 | 1011.8 |
| 20260506082848 | 16 | 136 | 3.2 | 4.8 | 0.00 | 0.10 | 0.00 | 83 | 1011.8 |
| 20260506082347 | 16 | 44 | 4.8 | 3.2 | 0.00 | 0.10 | 0.00 | 82 | 1011.8 |
| 20260506081849 | 16 | 190 | 1.6 | 4.8 | 0.00 | 0.10 | 0.00 | 82 | 1011.8 |
| 20260506081350 | 16 | 156 | 3.2 | 3.2 | 0.00 | 0.10 | 0.00 | 82 | 1011.8 |
| 20260506080849 | 16 | 208 | 3.2 | 0.0 | 0.00 | 0.10 | 0.00 | 82 | 1011.8 |
| 20260506080350 | 16 | 150 | 0.0 | 4.8 | 0.00 | 0.10 | 0.00 | 82 | 1011.9 |
| 20260506073353 | 16 | 158 | 3.2 | 3.2 | 0.00 | 0.10 | 0.00 | 81 | 1012.0 |
| 20260506072854 | 16 | 184 | 0.0 | 4.8 | 0.00 | 0.10 | 0.00 | 80 | 1012.1 |
| 20260506072353 | 16 | 179 | 4.8 | 4.8 | 0.00 | 0.10 | 0.00 | 80 | 1012.1 |
| 20260506071854 | 16 | 156 | 0.0 | 0.0 | 0.00 | 0.10 | 0.00 | 80 | 1012.1 |
| 20260506071355 | 16 | 149 | 4.8 | 6.4 | 0.00 | 0.10 | 0.00 | 80 | 1012.2 |
| 20260506070854 | 16 | 204 | 4.8 | 0.0 | 0.00 | 0.10 | 0.00 | 80 | 1012.2 |
| 20260506070356 | 16 | 125 | 3.2 | 4.8 | 0.00 | 0.10 | 0.00 | 80 | 1012.1 |
| 20260506062359 | 16 | 150 | 3.2 | 4.8 | 0.00 | 0.10 | 0.00 | 78 | 1012.0 |
| 20260506061900 | 16 | 184 | 3.2 | 3.2 | 0.00 | 0.10 | 0.00 | 78 | 1012.0 |
| 20260506061402 | 16 | 138 | 4.8 | 3.2 | 0.00 | 0.10 | 0.00 | 78 | 1012.0 |
| 20260506060900 | 16 | 134 | 8.0 | 14.5 | 0.00 | 0.10 | 0.00 | 78 | 1012.0 |
| 20260506060402 | 16 | 187 | 6.4 | 8.0 | 0.00 | 0.10 | 0.00 | 78 | 1012.0 |
| 20260506051407 | 16 | 200 | 1.6 | 1.6 | 0.00 | 0.10 | 0.00 | 76 | 1012.4 |
| 20260506050906 | 16 | 195 | 3.2 | 4.8 | 0.00 | 0.10 | 0.00 | 76 | 1012.5 |
| 20260506050407 | 16 | 167 | 4.8 | 3.2 | 0.00 | 0.10 | 0.00 | 76 | 1012.6 |
| 20260506044909 | 16 | 183 | 4.8 | 9.7 | 0.00 | 0.10 | 0.00 | 75 | 1012.6 |
| 20260506044410 | 16 | 129 | 4.8 | 3.2 | 0.00 | 0.10 | 0.00 | 75 | 1012.6 |
| 20260506043909 | 17 | 187 | 4.8 | 3.2 | 0.00 | 0.10 | 0.00 | 74 | 1012.5 |
| 20260506043410 | 17 | 177 | 3.2 | 3.2 | 0.00 | 0.10 | 0.00 | 74 | 1012.5 |
| 20260506042912 | 17 | 319 | 0.0 | 0.0 | 0.00 | 0.10 | 0.00 | 73 | 1012.5 |
| 20260506042410 | 17 | 212 | 6.4 | 4.8 | 0.00 | 0.10 | 0.00 | 73 | 1012.5 |
| 20260506041911 | 17 | 190 | 4.8 | 4.8 | 0.00 | 0.10 | 0.00 | 73 | 1012.5 |
| 20260506041413 | 17 | 183 | 3.2 | 3.2 | 0.00 | 0.10 | 0.00 | 72 | 1012.5 |
| 20260506040911 | 17 | 174 | 4.8 | 6.4 | 0.00 | 0.10 | 0.00 | 72 | 1012.4 |
| 20260506040413 | 17 | 179 | 6.4 | 6.4 | 0.00 | 0.10 | 0.00 | 71 | 1012.6 |
| 20260506035914 | 17 | 200 | 4.8 | 4.8 | 0.00 | 0.10 | 0.00 | 71 | 1012.5 |
| 20260506035413 | 17 | 174 | 6.4 | 6.4 | 0.00 | 0.00 | 0.10 | 71 | 1012.5 |
| 20260506034914 | 17 | 166 | 6.4 | 4.8 | 0.00 | 0.00 | 0.10 | 70 | 1012.5 |
| 20260506034415 | 17 | 163 | 3.2 | 4.8 | 0.00 | 0.00 | 0.10 | 70 | 1012.5 |
| 20260506033914 | 17 | 104 | 4.8 | 6.4 | 0.00 | 0.00 | 0.10 | 70 | 1012.6 |
| 20260506033416 | 17 | 110 | 6.4 | 11.3 | 0.00 | 0.00 | 0.10 | 70 | 1012.6 |
| 20260506032917 | 17 | 148 | 8.0 | 11.3 | 0.00 | 0.00 | 0.10 | 69 | 1012.5 |
| 20260506032416 | 18 | 181 | 6.4 | 4.8 | 0.00 | 0.00 | 0.10 | 69 | 1012.4 |
| 20260506031917 | 18 | 205 | 6.4 | 6.4 | 0.00 | 0.00 | 0.10 | 69 | 1012.4 |
| 20260506031418 | 18 | 186 | 4.8 | 4.8 | 0.00 | 0.00 | 0.10 | 68 | 1012.5 |
| 20260506030917 | 18 | 184 | 6.4 | 11.3 | 0.00 | 0.00 | 0.10 | 68 | 1012.5 |
| 20260506030419 | 18 | 138 | 6.4 | 16.1 | 0.00 | 0.00 | 0.10 | 68 | 1012.5 |
| 20260506025920 | 18 | 165 | 4.8 | 8.0 | 0.00 | 0.00 | 0.10 | 68 | 1012.5 |
| 20260506025419 | 18 | 174 | 4.8 | 6.4 | 0.00 | 0.00 | 0.10 | 68 | 1012.5 |
| 20260506024920 | 18 | 187 | 6.4 | 3.2 | 0.00 | 0.00 | 0.10 | 67 | 1012.5 |
| 20260506024422 | 18 | 167 | 8.0 | 9.7 | 0.00 | 0.00 | 0.10 | 67 | 1012.6 |
| 20260506023920 | 18 | 163 | 8.0 | 8.0 | 0.00 | 0.00 | 0.10 | 67 | 1012.6 |
| 20260506023422 | 18 | 165 | 8.0 | 8.0 | 0.00 | 0.00 | 0.10 | 67 | 1012.7 |
| 20260506022923 | 18 | 173 | 8.0 | 8.0 | 0.00 | 0.00 | 0.10 | 66 | 1012.7 |
| 20260506022422 | 18 | 257 | 6.4 | 6.4 | 0.00 | 0.00 | 0.10 | 66 | 1012.6 |
| 20260506021923 | 18 | 188 | 4.8 | 3.2 | 0.00 | 0.00 | 0.10 | 66 | 1012.7 |
| 20260506021425 | 18 | 163 | 6.4 | 9.7 | 0.00 | 0.00 | 0.10 | 66 | 1012.7 |
| 20260506020923 | 18 | 242 | 8.0 | 6.4 | 0.00 | 0.00 | 0.10 | 66 | 1012.8 |
| 20260506020425 | 18 | 249 | 8.0 | 4.8 | 0.00 | 0.00 | 0.10 | 66 | 1012.7 |
| 20260506015926 | 18 | 228 | 8.0 | 6.4 | 0.00 | 0.00 | 0.10 | 66 | 1012.7 |
| 20260506015425 | 18 | 207 | 8.0 | 4.8 | 0.00 | 0.00 | 0.10 | 66 | 1012.7 |
| 20260506014926 | 18 | 203 | 4.8 | 3.2 | 0.00 | 0.00 | 0.10 | 66 | 1012.6 |
| 20260506014427 | 18 | 232 | 6.4 | 3.2 | 0.00 | 0.00 | 0.10 | 66 | 1012.6 |
| 20260506013926 | 18 | 191 | 6.4 | 8.0 | 0.00 | 0.00 | 0.10 | 66 | 1012.6 |
| 20260506013427 | 18 | 194 | 6.4 | 6.4 | 0.00 | 0.00 | 0.10 | 65 | 1012.5 |
| 20260506012929 | 18 | 172 | 11.3 | 9.7 | 0.00 | 0.00 | 0.10 | 65 | 1012.7 |
| 20260506012427 | 19 | 191 | 8.0 | 6.4 | 0.00 | 0.00 | 0.10 | 65 | 1012.6 |
| 20260506011929 | 19 | 180 | 6.4 | 6.4 | 0.00 | 0.00 | 0.10 | 65 | 1012.5 |
| 20260506011430 | 19 | 174 | 4.8 | 4.8 | 0.00 | 0.00 | 0.10 | 64 | 1012.4 |
| 20260506010929 | 19 | 156 | 8.0 | 4.8 | 0.00 | 0.00 | 0.10 | 64 | 1012.3 |
| 20260506010430 | 19 | 152 | 8.0 | 6.4 | 0.00 | 0.00 | 0.10 | 63 | 1012.3 |
| 20260506005932 | 19 | 181 | 6.4 | 3.2 | 0.00 | 0.00 | 0.10 | 62 | 1012.3 |
| 20260506005430 | 19 | 188 | 8.0 | 12.9 | 0.00 | 0.00 | 0.10 | 61 | 1012.4 |
| 20260506004931 | 19 | 153 | 8.0 | 8.0 | 0.00 | 0.00 | 0.10 | 61 | 1012.3 |
| 20260506004433 | 19 | 155 | 6.4 | 9.7 | 0.00 | 0.00 | 0.10 | 60 | 1012.3 |
| 20260506003931 | 19 | 152 | 8.0 | 11.3 | 0.00 | 0.00 | 0.10 | 60 | 1012.2 |
| 20260506003433 | 19 | 187 | 4.8 | 4.8 | 0.00 | 0.00 | 0.10 | 59 | 1012.2 |
| 20260506002934 | 19 | 143 | 6.4 | 6.4 | 0.00 | 0.00 | 0.10 | 59 | 1012.1 |
| 20260506002433 | 19 | 159 | 6.4 | 8.0 | 0.00 | 0.00 | 0.10 | 59 | 1012.0 |
| 20260506001934 | 19 | 203 | 11.3 | 11.3 | 0.00 | 0.00 | 0.10 | 59 | 1012.0 |
| 20260506001436 | 19 | 167 | 4.8 | 4.8 | 0.00 | 0.00 | 0.10 | 58 | 1012.0 |
| 20260506000934 | 20 | 188 | 6.4 | 8.0 | 0.00 | 0.00 | 0.10 | 58 | 1011.9 |
| 20260506000435 | 20 | 180 | 4.8 | 6.4 | 0.00 | 0.00 | 0.10 | 57 | 1011.9 |
| 20260505235937 | 20 | 181 | 4.8 | 6.4 | 0.00 | 0.00 | 0.10 | 57 | 1011.8 |
| 20260505235435 | 20 | 128 | 4.8 | 6.4 | 0.10 | 0.00 | 0.10 | 56 | 1011.7 |
| 20260505234937 | 20 | 221 | 6.4 | 4.8 | 0.10 | 0.00 | 0.10 | 56 | 1011.6 |
| 20260505234438 | 20 | 158 | 9.7 | 6.4 | 0.10 | 0.00 | 0.10 | 56 | 1011.7 |
| 20260505233937 | 20 | 163 | 6.4 | 11.3 | 0.10 | 0.00 | 0.10 | 56 | 1011.5 |
| 20260505233438 | 20 | 186 | 8.0 | 8.0 | 0.10 | 0.00 | 0.10 | 55 | 1011.6 |
| 20260505232939 | 20 | 174 | 8.0 | 3.2 | 0.10 | 0.00 | 0.10 | 55 | 1011.7 |
| 20260505232438 | 20 | 172 | 8.0 | 9.7 | 0.10 | 0.00 | 0.10 | 54 | 1011.5 |
| 20260505231939 | 21 | 177 | 8.0 | 9.7 | 0.10 | 0.00 | 0.10 | 53 | 1011.6 |
| 20260505231441 | 21 | 172 | 8.0 | 6.4 | 0.10 | 0.00 | 0.10 | 53 | 1011.5 |
| 20260505230939 | 21 | 204 | 8.0 | 8.0 | 0.10 | 0.00 | 0.10 | 53 | 1011.6 |
| 20260505230441 | 21 | 211 | 6.4 | 8.0 | 0.10 | 0.00 | 0.10 | 52 | 1011.5 |
| 20260505225942 | 21 | 0 | 8.0 | 6.4 | 0.10 | 0.00 | 0.10 | 52 | 1011.4 |
| 20260505225440 | 21 | 215 | 11.3 | 8.0 | 0.00 | 0.00 | 0.10 | 51 | 1011.4 |
| 20260505224942 | 21 | 208 | 6.4 | 6.4 | 0.00 | 0.00 | 0.10 | 51 | 1011.3 |
| 20260505224443 | 21 | 160 | 6.4 | 6.4 | 0.00 | 0.00 | 0.10 | 51 | 1011.1 |
| 20260505223942 | 21 | 212 | 8.0 | 3.2 | 0.00 | 0.00 | 0.10 | 50 | 1011.0 |
| 20260505223443 | 22 | 183 | 8.0 | 6.4 | 0.00 | 0.00 | 0.10 | 50 | 1011.0 |
| 20260505222944 | 22 | 135 | 9.7 | 16.1 | 0.00 | 0.00 | 0.10 | 49 | 1011.0 |
| 20260505222443 | 22 | 181 | 8.0 | 8.0 | 0.00 | 0.00 | 0.10 | 49 | 1010.9 |
| 20260505221944 | 22 | 215 | 3.2 | 4.8 | 0.00 | 0.00 | 0.10 | 49 | 1011.0 |
| 20260505221445 | 22 | 307 | 9.7 | 3.2 | 0.00 | 0.00 | 0.10 | 48 | 1010.8 |
| 20260505220944 | 22 | 174 | 4.8 | 6.4 | 0.00 | 0.00 | 0.10 | 49 | 1010.8 |